Spokane, WA

8:54 AM PDT on August 17, 2017 (GMT -0700)
Spokane International

Weather History for KGEG - March, 2013

Change the Weather History Date:

Sunday, March 24, 2013

  Actual Average Record
Temperature  
Mean Temperature 35 °F 43 °F  
Max Temperature 45 °F 52 °F 68 °F (1939)
Min Temperature 25 °F 34 °F 11 °F (1965)
Degree Days  
Heating Degree Days 30 22  
Month to date heating degree days 606 616  
Since 1 July heating degree days 5143 5445  
Cooling Degree Days 0 0  
Month to date cooling degree days 0 0  
Year to date cooling degree days 0 0  
Moisture  
Dew Point 19 °F    
Average Humidity 58    
Maximum Humidity 88    
Minimum Humidity 27    
Precipitation  
Precipitation 0.00 in 0.05 in 0.57 in (1962)
Month to date precipitation 0.81 1.25  
Year to date precipitation 3.18 4.37  
Snow  
Snow 0.00 in 0.10 in 3.40 in (1962)
Month to date snowfall 0.9 2.8  
Since 1 July snowfall 43.5 43.1  
Snow Depth 0.00 in    
Sea Level Pressure  
Sea Level Pressure 30.30 in    
Wind  
Wind Speed 4 mph (ENE)    
Max Wind Speed 12 mph    
Max Gust Speed 14 mph    
Visibility 10 miles    
Events      
T = Trace of Precipitation, MM = Missing Value Source: NWS Daily Summary

Daily Weather History Graph

Daily Weather History Graph

Search for Another Location

Airport or City:

Trip Planner

Search our weather history database for the weather conditions in past years. The results will help you decide how hot, cold, wet, or windy it might be!

Date:

Astronomy

Mar. 24, 2013 Rise Set
Actual Time 6:44 AM PDT 7:09 PM PDT
Civil Twilight 6:13 AM PDT 7:40 PM PDT
Nautical Twilight 5:36 AM PDT 8:16 PM PDT
Astronomical Twilight 4:59 AM PDT 8:54 PM PDT
Moon 4:34 PM PDT (3/24) 5:07 AM PDT (3/24)
Length of Visible Light 13h 26m
Length of Day
12h 24m
Waxing Gibbous, 92% of the Moon is Illuminated
Mar 24
Waxing Gibbous
Mar 27
Full
Apr 2
Last Quarter
Apr 10
New
Apr 18
First Quarter

Hourly Weather History & Observations

Time (PDT) Temp. Windchill Dew Point Humidity Pressure Visibility Wind Dir Wind Speed Gust Speed Precip Events Conditions
12:53 AM 28.9 °F 25.2 °F 23.0 °F 78% 30.33 in 10.0 mi ESE 3.5 mph - N/A   Partly Cloudy
1:53 AM 28.0 °F - 23.0 °F 81% 30.34 in 10.0 mi Calm Calm - N/A   Clear
2:53 AM 27.0 °F - 23.0 °F 85% 30.34 in 10.0 mi Calm Calm - N/A   Clear
3:53 AM 27.0 °F 23.0 °F 23.0 °F 85% 30.35 in 10.0 mi ENE 3.5 mph - N/A   Clear
4:53 AM 26.1 °F 18.4 °F 23.0 °F 88% 30.35 in 10.0 mi ENE 6.9 mph - N/A   Clear
5:53 AM 26.1 °F 20.5 °F 21.9 °F 84% 30.35 in 10.0 mi ENE 4.6 mph - N/A   Partly Cloudy
6:53 AM 25.0 °F 19.3 °F 21.9 °F 88% 30.36 in 10.0 mi ENE 4.6 mph - N/A   Partly Cloudy
7:53 AM 26.1 °F 21.9 °F 21.9 °F 84% 30.38 in 10.0 mi ENE 3.5 mph - N/A   Partly Cloudy
8:53 AM 28.9 °F 25.2 °F 23.0 °F 78% 30.37 in 10.0 mi East 3.5 mph - N/A   Partly Cloudy
9:53 AM 33.1 °F 30.0 °F 23.0 °F 66% 30.37 in 10.0 mi Variable 3.5 mph - N/A   Scattered Clouds
10:53 AM 36.0 °F 33.3 °F 23.0 °F 59% 30.36 in 10.0 mi Variable 3.5 mph - N/A   Scattered Clouds
11:53 AM 39.0 °F 35.7 °F 21.9 °F 50% 30.35 in 10.0 mi ESE 4.6 mph - N/A   Scattered Clouds
12:53 PM 39.9 °F 36.7 °F 19.0 °F 43% 30.33 in 10.0 mi NNE 4.6 mph - N/A   Mostly Cloudy
1:53 PM 42.1 °F 39.2 °F 18.0 °F 38% 30.31 in 10.0 mi Variable 4.6 mph - N/A   Scattered Clouds
2:53 PM 43.0 °F 39.5 °F 12.9 °F 30% 30.28 in 10.0 mi SE 5.8 mph - N/A   Scattered Clouds
3:53 PM 44.1 °F 40.1 °F 15.1 °F 31% 30.27 in 10.0 mi Variable 6.9 mph - N/A   Scattered Clouds
4:53 PM 44.1 °F - 12.9 °F 28% 30.25 in 10.0 mi Calm Calm - N/A   Scattered Clouds
5:53 PM 43.0 °F 40.3 °F 12.0 °F 28% 30.23 in 10.0 mi NE 4.6 mph - N/A   Scattered Clouds
6:53 PM 42.1 °F - 12.0 °F 29% 30.22 in 10.0 mi Calm Calm - N/A   Scattered Clouds
7:53 PM 39.0 °F - 14.0 °F 36% 30.22 in 10.0 mi Calm Calm - N/A   Partly Cloudy
8:53 PM 35.1 °F 32.2 °F 18.0 °F 50% 30.22 in 10.0 mi WSW 3.5 mph - N/A   Clear
9:53 PM 32.0 °F - 19.0 °F 59% 30.22 in 10.0 mi Calm Calm - N/A   Clear
10:53 PM 33.1 °F 28.7 °F 16.0 °F 50% 30.21 in 10.0 mi NE 4.6 mph - N/A   Clear
11:53 PM 33.1 °F 27.7 °F 16.0 °F 50% 30.20 in 10.0 mi ENE 5.8 mph - N/A   Clear